Regional Weather Roundup
Issued by NWS

Home | Current Version | Previous Version | Text Only | Print | Product List | Glossary On
Versions: 1 2 3 4 5 6 7 8 9 10 11 12 13 14 15 16 17 18 19 20 21 22 23 24 25 26 27 28 29 30 31 32 33 34 35 36 37 38 39 40 41 42 43 44 45 46 47 48 49 50
516
ASUS43 KMKX 251211
RWRWI

WISCONSIN REGIONAL WEATHER ROUNDUP
NATIONAL WEATHER SERVICE MILWAUKEE/SULLIVAN WI
600 AM CST SAT NOV 25 2017

NOTE: "FAIR" INDICATES FEW OR NO CLOUDS BELOW 12,000 FEET WITH NO
SIGNIFICANT WEATHER AND/OR OBSTRUCTIONS TO VISIBILITY.

WIZ001-002-006>008-014>016-023>028-251300-
NORTHWEST WISCONSIN

CITY           SKY/WX    TMP DP  RH WIND       PRES   REMARKS
SUPERIOR ARPT  PTCLDY    29  17  61 NW17      29.89R WCI  17
6HR MIN TEMP:  29; 6HR MAX TEMP:  40;

ASHLAND        CLEAR     29  18  63 W12       29.84R WCI  19
6HR MIN TEMP:  29; 6HR MAX TEMP:  39;

HAYWARD        MOCLDY    33  22  63 VRB6      29.84R WCI  28
6HR MIN TEMP:  33; 6HR MAX TEMP:  38;

SIREN          CLEAR     31  22  67 NW12G18   29.89R WCI  22
6HR MIN TEMP:  31; 6HR MAX TEMP:  37;

CUMBERLAND     CLEAR     32  27  80 NW9       29.85R WCI  24
RICE LAKE      PTCLDY    33  27  81 CALM      29.86R
6HR MIN TEMP:  33; 6HR MAX TEMP:  36;

CHETEK         CLEAR     33  27  80 NW8       29.84R WCI  26
6HR MIN TEMP:  33; 6HR MAX TEMP:  36;

LADYSMITH      PTCLDY    33  24  69 NW16      29.82R WCI  23
6HR MIN TEMP:  33; 6HR MAX TEMP:  37;

EAU CLAIRE     CLEAR     34  29  82 W10       29.85R WCI  26
6HR MIN TEMP:  34; 6HR MAX TEMP:  37;

MENOMONIE      CLEAR     35  29  80 W10       29.87R WCI  27
6HR MIN TEMP:  35; 6HR MAX TEMP:  38;

NEW RICHMOND   CLEAR     32  27  82 W14       29.89R WCI  22
6HR MIN TEMP:  32; 6HR MAX TEMP:  38;

OSCEOLA        CLEAR     33  28  80 W12       29.93R WCI  25
6HR MIN TEMP:  33; 6HR MAX TEMP:  39;

$$

WIZ003>005-009-010-017-018-251300-
NORTH CENTRAL WISCONSIN

CITY           SKY/WX    TMP DP  RH WIND       PRES   REMARKS
MANITOWISH WTR CLOUDY    30  21  68 NW17      29.73R WCI  18
6HR MIN TEMP:  30; 6HR MAX TEMP:  37;

ARBOR VITAE    CLOUDY    32  22  66 NW13G21   29.73R WCI  22
6HR MIN TEMP:  32; 6HR MAX TEMP:  39;

WOODRUFF       CLOUDY    32  22  66 NW13G21   29.73R WCI  22
6HR MIN TEMP:  32; 6HR MAX TEMP:  39;

RHINELANDER    CLOUDY    32  20  61 NW10G23   29.73R WCI  24
6HR MIN TEMP:  32; 6HR MAX TEMP:  39;

EAGLE RIVER    CLOUDY    31  20  62 NW20G25   29.71R WCI  19
6HR MIN TEMP:  31; 6HR MAX TEMP:  37;

LAND O LAKES   CLOUDY    32  22  65 NW10G29   29.72R WCI  23
6HR MIN TEMP:  32; 6HR MAX TEMP:  37;

PHILLIPS       PTCLDY    31  22  69 NW15G23   29.76R WCI  20
6HR MIN TEMP:  31; 6HR MAX TEMP:  37;

TOMAHAWK       MOCLDY    32  22  67 NW15G23   29.75R WCI  22
6HR MIN TEMP:  32; 6HR MAX TEMP:  38;

MEDFORD        CLOUDY    33  25  72 W15G22    29.76R WCI  23
6HR MIN TEMP:  32; 6HR MAX TEMP:  37;

MERRILL        CLOUDY    36  28  74 NW10G22   29.74R WCI  28
6HR MIN TEMP:  35; 6HR MAX TEMP:  40;

$$

WIZ029-030-035-036-043>047-251300-
CENTRAL WISCONSIN

CITY           SKY/WX    TMP DP  RH WIND       PRES   REMARKS
WAUSAU         CLOUDY    35  28  75 W15G24    29.73R WCI  25
6HR MIN TEMP:  34; 6HR MAX TEMP:  41;

MOSINEE        CLOUDY    34  30  86 W14G20    29.76R WCI  24
MARSHFIELD     CLEAR     33  28  81 W12       29.78R WCI  24
6HR MIN TEMP:  33; 6HR MAX TEMP:  40;

STEVENS POINT  MOCLDY    34  29  83 W8G17     29.78R WCI  27
6HR MIN TEMP:  33; 6HR MAX TEMP:  40;

WAUPACA        CLEAR     38  32  79 W9        29.77R WCI  31
6HR MIN TEMP:  38; 6HR MAX TEMP:  46;

WAUTOMA        CLEAR     37  30  75 W14       29.80R WCI  28
6HR MIN TEMP:  37; 6HR MAX TEMP:  43;

WISC RAPIDS    CLEAR     35  30  82 NW12      29.81R WCI  27
6HR MIN TEMP:  35; 6HR MAX TEMP:  43;

CAMP DOUGLAS   CLEAR     36  32  86 W13G21    29.82R WCI  27
6HR MIN TEMP:  35; 6HR MAX TEMP:  43;

$$

WIZ011>013-019>022-031-037>040-048>050-251300-
NORTHEAST WISCONSIN

CITY           SKY/WX    TMP DP  RH WIND       PRES   REMARKS
ANTIGO         CLOUDY    34  29  82 W17       29.71R WCI  24
6HR MIN TEMP:  34; 6HR MAX TEMP:  38;

SHAWANO        CLOUDY    40  32  71 W7G17     29.72R
6HR MIN TEMP:  40; 6HR MAX TEMP:  44;

OCONTO         CLOUDY    40  32  72 W13       29.70R WCI  33
6HR MIN TEMP:  35; 6HR MAX TEMP:  44;

STURGEON BAY   CLOUDY    40  33  76 W8        29.69R WCI  34
6HR MIN TEMP:  39; 6HR MAX TEMP:  45; 6HR PCP: TRACE;

GREEN BAY      CLOUDY    39  33  79 W13       29.73R WCI  31
6HR MIN TEMP:  39; 6HR MAX TEMP:  46;

MANITOWOC      CLOUDY    40  31  70 W12       29.73R WCI  33
6HR MIN TEMP:  40; 6HR MAX TEMP:  47;

APPLETON       MOCLDY    36  28  75 W12       29.73R WCI  27
CLINTONVILLE   CLOUDY    37  30  75 W10G16    29.74R WCI  30
OSHKOSH        CLOUDY    37  32  82 W7        29.76R WCI  32
6HR MIN TEMP:  37; 6HR MAX TEMP:  46;

$$

WIZ032>034-041-042-053>061-251300-
SOUTHWEST WISCONSIN

CITY           SKY/WX    TMP DP  RH WIND       PRES   REMARKS
LA CROSSE      PTCLDY    39  32  76 NW13      29.87R WCI  31
6HR MIN TEMP:  38; 6HR MAX TEMP:  43;

SPARTA         PTCLDY    37  33  85 W8        29.86R WCI  30
6HR MIN TEMP:  35; 6HR MAX TEMP:  43;

VIROQUA        PTCLDY    35  33  92 W7        29.84R WCI  30
6HR MIN TEMP:  35; 6HR MAX TEMP:  41;

BOSCOBEL       PTCLDY    40  32  73 SW6       29.88R
6HR MIN TEMP:  38; 6HR MAX TEMP:  47;

PRAIRIE DU CHI CLEAR     38  31  76 W6        29.90R WCI  33
6HR MIN TEMP:  37; 6HR MAX TEMP:  44;

PLATTEVILLE    PTCLDY    37  34  91 W10       29.88R WCI  29
6HR MIN TEMP:  37; 6HR MAX TEMP:  45;

$$

WIZ056-057-062-063-064-067-068-251300-
SOUTH CENTRAL WISCONSIN

CITY           SKY/WX    TMP DP  RH WIND       PRES   REMARKS
REEDSBURG      MOCLDY    36  32  86 W7        29.83R WCI  30
6HR MIN TEMP:  36; 6HR MAX TEMP:  45;

BARABOO/DELLS  MOCLDY    36  32  84 W6        29.82R WCI  31
6HR MIN TEMP:  36; 6HR MAX TEMP:  45;

LONE ROCK      PTCLDY    36  33  89 W8        29.85R WCI  30
6HR MIN TEMP:  34; 6HR MAX TEMP:  48;

MINERAL POINT  PTCLDY    36  36 100 W9        29.85R WCI  29
MADISON        PTCLDY    38  32  79 VRB6      29.81R WCI  33
6HR MIN TEMP:  37; 6HR MAX TEMP:  48;

MIDDLETON      PTCLDY    39  33  81 W10       29.82R WCI  32
6HR MIN TEMP:  37; 6HR MAX TEMP:  49;

WATERTOWN      PTCLDY    37  33  86 W8        29.79R WCI  31
6HR MIN TEMP:  37; 6HR MAX TEMP:  47;

MONROE         CLEAR     36  32  87 W14       29.83R WCI  27
JANESVILLE     CLEAR     37  34  87 W7        29.82R WCI  32
$$

WIZ051-052-058>065-066-070>072-251300-
SOUTHEAST WISCONSIN

CITY           SKY/WX    TMP DP  RH WIND       PRES   REMARKS
MILWAUKEE      PTCLDY    43  33  68 NW12G22   29.77R
6HR MIN TEMP:  43; 6HR MAX TEMP:  50;

WAUKESHA       CLEAR     37  30  75 W12G17    29.78S WCI  30
MILWAUKEE/TIMM MOCLDY    37  30  75 W10G16    29.78R WCI  30
RACINE         CLEAR     42  33  70 NW9G21    29.79R
6HR MIN TEMP:  42; 6HR MAX TEMP:  53;

BURLINGTON     PTCLDY    42  37  80 W9        29.80R
6HR MIN TEMP:  42; 6HR MAX TEMP:  53;

KENOSHA        CLEAR     41  32  70 W13       29.78R
6HR MIN TEMP:  41; 6HR MAX TEMP:  53;

FOND DU LAC    PTCLDY    38  31  76 W13       29.77R WCI  30
6HR MIN TEMP:  38; 6HR MAX TEMP:  47;

SHEBOYGAN      MOCLDY    39  33  79 NW14G22   29.74R WCI  31
6HR MIN TEMP:  39; 6HR MAX TEMP:  48;

WEST BEND      CLOUDY    37  32  81 W13       29.76R WCI  29
JUNEAU         CLEAR     37  32  84 W5        29.79R WCI  33
6HR MIN TEMP:  36; 6HR MAX TEMP:  46;

$$

LSZ147-162-251300-
LAKE SUPERIOR

STATION/POSITION TIME  TEMP    WIND        PRES    WAVE
                       AIR SEA DIR/SP/G            HT/PER
                 (UTC) (F)     (DEG/KT/KT) (MB)    (FT/S)
DEVILS ISLAND    1200   29     300/ 23/ 29 1011.2R
SAXON HARBOR     1130   35     310/ 23/ 26 1008.5R
$$

LMZ867-665-643>646-251300-
LAKE MICHIGAN

STATION/POSITION TIME  TEMP    WIND        PRES    WAVE
                       AIR SEA DIR/SP/G            HT/PER




USA.gov is the U.S. government's official web portal to all federal, state and local government web resources and services.